| time (UTC) | temp C | wind direction | speed KPH | gust KPH | rain 1hr cm | rain 24hr cm | rain mn cm | humidity % | barometer mb |
| 20260508135444 | 11 | 273 | 8.0 | 14.5 | 0.00 | 0.08 | 0.08 | 100 | 1118.7 |
| 20260508134541 | 11 | 269 | 9.7 | 14.5 | 0.00 | 0.08 | 0.08 | 100 | 1118.6 |
| 20260508133543 | 11 | 269 | 9.7 | 12.9 | 0.00 | 0.08 | 0.08 | 100 | 1118.7 |
| 20260508132640 | 11 | 275 | 8.0 | 16.1 | 0.00 | 0.08 | 0.08 | 100 | 1118.7 |
| 20260508130642 | 10 | 271 | 11.3 | 20.9 | 0.00 | 0.08 | 0.08 | 100 | 1118.5 |
| 20260508124741 | 10 | 275 | 11.3 | 17.7 | 0.00 | 0.08 | 0.08 | 100 | 1118.6 |
| 20260508123740 | 10 | 279 | 6.4 | 11.3 | 0.00 | 0.08 | 0.08 | 100 | 1118.7 |
| 20260508122826 | 10 | 268 | 9.7 | 12.9 | 0.00 | 0.08 | 0.08 | 100 | 1118.6 |
| 20260508121840 | 10 | 264 | 8.0 | 11.3 | 0.00 | 0.08 | 0.08 | 100 | 1118.4 |
| 20260508121741 | 10 | 240 | 8.0 | 14.5 | 0.00 | 0.08 | 0.08 | 100 | 1118.4 |
| 20260508120742 | 9 | 262 | 9.7 | 14.5 | 0.00 | 0.08 | 0.08 | 100 | 1118.4 |
| 20260508115823 | 9 | 279 | 6.4 | 9.7 | 0.00 | 0.08 | 0.08 | 100 | 1118.4 |
| 20260508114840 | 8 | 268 | 9.7 | 17.7 | 0.00 | 0.08 | 0.08 | 100 | 1118.1 |
| 20260508113842 | 8 | 241 | 6.4 | 11.3 | 0.00 | 0.08 | 0.08 | 100 | 1118.1 |
| 20260508112925 | 7 | 254 | 3.2 | 4.8 | 0.00 | 0.08 | 0.08 | 100 | 1118.0 |
| 20260508111941 | 7 | 200 | 8.0 | 11.3 | 0.00 | 0.08 | 0.08 | 100 | 1117.9 |
| 20260508110039 | 7 | 195 | 0.0 | 1.6 | 0.00 | 0.08 | 0.08 | 100 | 1117.6 |
| 20260508105040 | 7 | 180 | 0.0 | 1.6 | 0.00 | 0.08 | 0.08 | 100 | 1117.5 |
| 20260508104041 | 7 | 202 | 1.6 | 1.6 | 0.00 | 0.08 | 0.08 | 100 | 1117.4 |
| 20260508103041 | 7 | 205 | 3.2 | 8.0 | 0.00 | 0.08 | 0.08 | 100 | 1117.4 |
| 20260508102040 | 7 | 173 | 1.6 | 3.2 | 0.00 | 0.08 | 0.08 | 100 | 1117.4 |
| 20260508101041 | 7 | 204 | 3.2 | 3.2 | 0.00 | 0.08 | 0.08 | 100 | 1117.8 |
| 20260508100040 | 7 | 270 | 3.2 | 4.8 | 0.00 | 0.08 | 0.08 | 100 | 1117.7 |
| 20260508095040 | 7 | 183 | 4.8 | 9.7 | 0.00 | 0.08 | 0.08 | 100 | 1117.4 |
| 20260508094040 | 6 | 218 | 3.2 | 4.8 | 0.00 | 0.08 | 0.08 | 100 | 1117.5 |
| 20260508093043 | 6 | 223 | 3.2 | 6.4 | 0.03 | 0.08 | 0.08 | 100 | 1117.5 |
| 20260508092041 | 6 | 180 | 1.6 | 3.2 | 0.03 | 0.08 | 0.08 | 100 | 1117.3 |
| 20260508091125 | 6 | 191 | 1.6 | 4.8 | 0.03 | 0.08 | 0.08 | 100 | 1117.4 |
| 20260508090140 | 7 | 212 | 1.6 | 1.6 | 0.03 | 0.08 | 0.08 | 100 | 1117.5 |
| 20260508085141 | 7 | 247 | 0.0 | 3.2 | 0.05 | 0.08 | 0.08 | 100 | 1117.7 |
| 20260508084240 | 7 | 218 | 3.2 | 6.4 | 0.05 | 0.08 | 0.08 | 100 | 1117.6 |
| 20260508083242 | 7 | 218 | 4.8 | 8.0 | 0.03 | 0.05 | 0.05 | 100 | 1117.4 |
| 20260508082241 | 7 | 222 | 8.0 | 14.5 | 0.03 | 0.05 | 0.05 | 100 | 1117.8 |
| 20260508081341 | 7 | 221 | 4.8 | 8.0 | 0.05 | 0.05 | 0.05 | 100 | 1117.9 |
| 20260508080339 | 7 | 270 | 8.0 | 11.3 | 0.05 | 0.05 | 0.05 | 100 | 1118.2 |
| 20260508075342 | 7 | 262 | 11.3 | 16.1 | 0.03 | 0.03 | 0.03 | 100 | 1118.2 |
| 20260508074440 | 7 | 220 | 14.5 | 22.5 | 0.03 | 0.03 | 0.03 | 100 | 1118.1 |
| 20260508073442 | 7 | 226 | 6.4 | 8.0 | 0.03 | 0.03 | 0.03 | 100 | 1117.9 |
| 20260508072440 | 6 | 214 | 8.0 | 12.9 | 0.03 | 0.03 | 0.03 | 100 | 1118.0 |
| 20260508071443 | 6 | 214 | 3.2 | 6.4 | 0.00 | 0.00 | 0.00 | 100 | 1117.9 |
| 20260508070541 | 6 | 220 | 4.8 | 6.4 | 0.00 | 0.00 | 0.00 | 100 | 1118.1 |
| 20260508065640 | 6 | 203 | 4.8 | 9.7 | 0.00 | 0.00 | 0.00 | 100 | 1118.3 |
| 20260508064640 | 6 | 209 | 4.8 | 8.0 | 0.00 | 0.00 | 0.00 | 100 | 1118.3 |
| 20260508063724 | 7 | 224 | 4.8 | 8.0 | 0.00 | 0.00 | 0.00 | 100 | 1118.4 |
| 20260508062739 | 7 | 218 | 8.0 | 11.3 | 0.00 | 0.00 | 0.00 | 100 | 1118.5 |
| 20260508061839 | 7 | 226 | 4.8 | 8.0 | 0.00 | 0.00 | 0.00 | 100 | 1118.7 |
| 20260508060840 | 7 | 243 | 4.8 | 6.4 | 0.00 | 0.00 | 0.00 | 100 | 1118.9 |
| 20260508054939 | 7 | 247 | 3.2 | 4.8 | 0.00 | 0.00 | 0.00 | 100 | 1119.0 |
| 20260508053941 | 8 | 217 | 4.8 | 6.4 | 0.00 | 0.00 | 0.00 | 100 | 1118.9 |
| 20260508053039 | 8 | 256 | 3.2 | 6.4 | 0.00 | 0.00 | 0.00 | 100 | 1118.9 |
| 20260508051138 | 8 | 202 | 3.2 | 3.2 | 0.00 | 0.00 | 0.00 | 100 | 1118.9 |
| 20260508043141 | 7 | 157 | 0.0 | 0.0 | 0.00 | 0.00 | 0.00 | 100 | 1118.8 |
| 20260508041141 | 7 | 225 | 0.0 | 0.0 | 0.00 | 0.00 | 0.00 | 100 | 1118.7 |
| 20260508040240 | 8 | 225 | 0.0 | 0.0 | 0.00 | 0.00 | 0.00 | 100 | 1118.8 |
| 20260508035334 | 8 | 225 | 1.6 | 3.2 | 0.00 | 0.00 | 0.00 | 100 | 1118.8 |
| 20260508034334 | 8 | 247 | 1.6 | 1.6 | 0.00 | 0.00 | 0.00 | 100 | 1119.1 |
| 20260508033335 | 8 | 225 | 0.0 | 1.6 | 0.00 | 0.00 | 0.00 | 100 | 1119.1 |
| 20260508031335 | 8 | 247 | 0.0 | 1.6 | 0.00 | 0.00 | 0.00 | 100 | 1119.1 |
| 20260508030337 | 8 | 247 | 1.6 | 3.2 | 0.00 | 0.00 | 0.00 | 100 | 1119.3 |
| 20260508025336 | 9 | 247 | 1.6 | 3.2 | 0.00 | 0.00 | 0.00 | 100 | 1119.4 |
| 20260508024337 | 9 | 276 | 3.2 | 6.4 | 0.00 | 0.00 | 0.00 | 100 | 1119.4 |
| 20260508023336 | 9 | 281 | 4.8 | 6.4 | 0.00 | 0.00 | 0.00 | 100 | 1119.4 |
| 20260508022336 | 9 | 287 | 8.0 | 11.3 | 0.00 | 0.00 | 0.00 | 100 | 1119.3 |
| 20260508015534 | 10 | 296 | 17.7 | 29.0 | 0.00 | 0.00 | 0.00 | 100 | 1119.4 |
| 20260508014536 | 10 | 284 | 4.8 | 8.0 | 0.00 | 0.00 | 0.00 | 100 | 1119.1 |
| 20260508013537 | 10 | 290 | 6.4 | 11.3 | 0.00 | 0.00 | 0.00 | 100 | 1118.9 |
| 20260508012635 | 9 | 225 | 3.2 | 4.8 | 0.00 | 0.00 | 0.00 | 100 | 1118.7 |
| 20260508011635 | 9 | 257 | 3.2 | 4.8 | 0.00 | 0.00 | 0.00 | 100 | 1118.7 |
| 20260508010635 | 9 | 225 | 0.0 | 0.0 | 0.00 | 0.00 | 0.00 | 100 | 1118.4 |
| 20260508005721 | 9 | 233 | 1.6 | 3.2 | 0.00 | 0.00 | 0.00 | 100 | 1118.4 |
| 20260508004735 | 9 | 247 | 0.0 | 1.6 | 0.00 | 0.00 | 0.00 | 100 | 1118.3 |
| 20260508002735 | 10 | 247 | 1.6 | 3.2 | 0.00 | 0.00 | 0.00 | 100 | 1118.2 |
| 20260508001736 | 10 | 247 | 1.6 | 3.2 | 0.00 | 0.00 | 0.00 | 100 | 1118.2 |
| 20260508000819 | 10 | 265 | 3.2 | 3.2 | 0.00 | 0.00 | 0.00 | 100 | 1118.1 |
| 20260507235836 | 11 | 270 | 3.2 | 4.8 | 0.00 | 0.00 | 0.00 | 100 | 1118.1 |
| 20260507234836 | 11 | 291 | 6.4 | 9.7 | 0.00 | 0.00 | 0.00 | 100 | 1118.0 |
| 20260507233935 | 12 | 290 | 8.0 | 11.3 | 0.00 | 0.00 | 0.00 | 100 | 1118.1 |
| 20260507233021 | 12 | 276 | 9.7 | 14.5 | 0.00 | 0.00 | 0.00 | 100 | 1118.1 |
| 20260507232035 | 12 | 270 | 4.8 | 9.7 | 0.00 | 0.00 | 0.00 | 100 | 1118.1 |
| 20260507231037 | 12 | 277 | 4.8 | 9.7 | 0.00 | 0.00 | 0.00 | 100 | 1118.2 |
| 20260507230135 | 11 | 284 | 6.4 | 9.7 | 0.00 | 0.00 | 0.00 | 100 | 1118.1 |
| 20260507225137 | 11 | 278 | 9.7 | 12.9 | 0.00 | 0.00 | 0.00 | 100 | 1118.2 |
| 20260507223136 | 13 | 291 | 11.3 | 17.7 | 0.00 | 0.00 | 0.00 | 100 | 1118.3 |
| 20260507222135 | 13 | 271 | 8.0 | 12.9 | 0.00 | 0.00 | 0.00 | 100 | 1118.2 |
| 20260507221219 | 13 | 286 | 11.3 | 17.7 | 0.00 | 0.00 | 0.00 | 100 | 1118.4 |
| 20260507220236 | 13 | 313 | 6.4 | 9.7 | 0.00 | 0.00 | 0.00 | 100 | 1118.2 |
| 20260507215335 | 13 | 286 | 19.3 | 32.2 | 0.00 | 0.00 | 0.00 | 100 | 1118.2 |
| 20260507212520 | 12 | 287 | 11.3 | 17.7 | 0.00 | 0.00 | 0.00 | 100 | 1118.2 |
| 20260507211537 | 12 | 300 | 11.3 | 19.3 | 0.00 | 0.00 | 0.00 | 100 | 1118.0 |
| 20260507210537 | 13 | 281 | 9.7 | 12.9 | 0.00 | 0.00 | 0.00 | 100 | 1118.0 |
| 20260507205536 | 12 | 291 | 16.1 | 22.5 | 0.00 | 0.00 | 0.00 | 100 | 1117.8 |
| 20260507203637 | 12 | 287 | 14.5 | 20.9 | 0.00 | 0.00 | 0.00 | 100 | 1117.9 |
| 20260507201734 | 12 | 285 | 12.9 | 17.7 | 0.00 | 0.00 | 0.00 | 100 | 1117.6 |
| 20260507200737 | 12 | 280 | 14.5 | 20.9 | 0.00 | 0.00 | 0.00 | 100 | 1117.9 |
| 20260507194835 | 11 | 283 | 14.5 | 22.5 | 0.00 | 0.00 | 0.00 | 100 | 1118.0 |
| 20260507193922 | 12 | 299 | 16.1 | 25.7 | 0.00 | 0.00 | 0.00 | 100 | 1118.2 |
| 20260507192934 | 11 | 291 | 14.5 | 22.5 | 0.00 | 0.00 | 0.00 | 100 | 1118.3 |
| 20260507191934 | 11 | 287 | 11.3 | 22.5 | 0.00 | 0.00 | 0.00 | 100 | 1118.3 |
| 20260507190936 | 12 | 278 | 12.9 | 19.3 | 0.00 | 0.00 | 0.00 | 100 | 1118.5 |
| 20260507185934 | 12 | 281 | 17.7 | 27.4 | 0.00 | 0.00 | 0.00 | 100 | 1118.3 |
| 20260507183935 | 12 | 282 | 14.5 | 20.9 | 0.00 | 0.00 | 0.00 | 100 | 1118.4 |
| 20260507183034 | 12 | 278 | 12.9 | 19.3 | 0.00 | 0.00 | 0.00 | 100 | 1118.5 |
| 20260507182038 | 11 | 230 | 9.7 | 14.5 | 0.00 | 0.00 | 0.00 | 100 | 1118.3 |
| 20260507181135 | 12 | 267 | 14.5 | 29.0 | 0.00 | 0.00 | 0.00 | 100 | 1118.6 |
| 20260507175235 | 11 | 281 | 12.9 | 19.3 | 0.00 | 0.00 | 0.00 | 100 | 1118.6 |
| 20260507174235 | 11 | 277 | 12.9 | 24.1 | 0.00 | 0.00 | 0.00 | 100 | 1118.9 |
| 20260507173318 | 11 | 269 | 9.7 | 16.1 | 0.00 | 0.00 | 0.00 | 100 | 1118.7 |
| 20260507172336 | 12 | 270 | 17.7 | 29.0 | 0.00 | 0.00 | 0.00 | 100 | 1118.9 |
| 20260507172237 | 12 | 266 | 11.3 | 20.9 | 0.00 | 0.00 | 0.00 | 100 | 1118.9 |
| 20260507170435 | 11 | 237 | 8.0 | 14.5 | 0.00 | 0.00 | 0.00 | 100 | 1118.7 |
| 20260507165433 | 11 | 267 | 9.7 | 17.7 | 0.00 | 0.00 | 0.00 | 100 | 1118.8 |
| 20260507164418 | 11 | 280 | 14.5 | 22.5 | 0.00 | 0.00 | 0.00 | 100 | 1119.0 |
| 20260507162534 | 11 | 275 | 11.3 | 16.1 | 0.00 | 0.00 | 0.00 | 100 | 1118.8 |
| 20260507155534 | 10 | 273 | 6.4 | 9.7 | 0.00 | 0.00 | 0.00 | 100 | 1119.0 |
| 20260507154536 | 11 | 283 | 9.7 | 12.9 | 0.00 | 0.00 | 0.00 | 100 | 1118.9 |
| 20260507153635 | 11 | 286 | 11.3 | 16.1 | 0.00 | 0.00 | 0.00 | 100 | 1118.9 |
| 20260507152636 | 10 | 268 | 8.0 | 11.3 | 0.00 | 0.00 | 0.00 | 100 | 1118.9 |
| 20260507151733 | 10 | 290 | 4.8 | 9.7 | 0.00 | 0.00 | 0.00 | 100 | 1118.9 |
| 20260507151635 | 10 | 268 | 6.4 | 9.7 | 0.00 | 0.00 | 0.00 | 100 | 1118.9 |
| 20260507150635 | 10 | 257 | 4.8 | 11.3 | 0.00 | 0.00 | 0.00 | 100 | 1119.0 |
| 20260507145635 | 10 | 274 | 8.0 | 12.9 | 0.00 | 0.00 | 0.00 | 100 | 1119.0 |
| 20260507144635 | 10 | 248 | 8.0 | 14.5 | 0.00 | 0.00 | 0.00 | 100 | 1119.1 |
| 20260507143636 | 9 | 263 | 6.4 | 9.7 | 0.00 | 0.00 | 0.00 | 100 | 1119.1 |
| 20260507142735 | 9 | 259 | 8.0 | 11.3 | 0.00 | 0.00 | 0.00 | 100 | 1118.9 |
| 20260507141834 | 9 | 290 | 8.0 | 12.9 | 0.00 | 0.00 | 0.00 | 100 | 1119.0 |
| 20260507140838 | 8 | 212 | 6.4 | 11.3 | 0.00 | 0.00 | 0.00 | 100 | 1119.1 |